FW2297 Weather Reports


Display with metric or nautical units.
time (UTC)temp
F
wind
direction
speed
MPH
gust
MPH
rain 1hr
in
rain 24hr
in
rain mn
in
humidity
%
barometer
mb
20260507120551 47 0 0.0 0.0 0.00 0.47 0.01 81 1007.3
20260507120057 47 0 0.0 3.0 0.00 0.47 0.01 83 1007.3
20260507115551 46 0 0.0 3.0 0.00 0.47 0.01 84 1007.4
20260507115052 46 0 0.0 3.0 0.00 0.47 0.01 85 1007.4
20260507114557 45 0 0.0 0.0 0.00 0.47 0.01 86 1007.4
20260507114052 45 0 0.0 0.0 0.00 0.47 0.01 86 1007.2
20260507113552 45 0 0.0 0.0 0.00 0.47 0.01 87 1007.4
20260507113105 44 0 0.0 3.0 0.00 0.47 0.01 89 1007.4
20260507112551 44 0 0.0 3.0 0.00 0.47 0.01 90 1007.3
20260507112051 43 0 0.0 2.0 0.00 0.47 0.01 91 1007.4
20260507111559 43 0 0.0 0.0 0.00 0.47 0.01 91 1007.3
20260507111051 42 0 0.0 0.0 0.00 0.47 0.01 92 1007.2
20260507110552 42 0 0.0 0.0 0.00 0.47 0.01 92 1007.3
20260507105551 41 0 0.0 0.0 0.00 0.47 0.01 93 1007.2
20260507105056 40 0 0.0 0.0 0.00 0.47 0.01 92 1007.4
20260507104600 40 0 0.0 0.0 0.00 0.47 0.01 92 1007.4
20260507104052 40 0 0.0 0.0 0.00 0.47 0.01 92 1007.1
20260507103551 40 0 0.0 0.0 0.00 0.47 0.01 92 1007.2
20260507103104 40 0 0.0 0.0 0.00 0.47 0.01 92 1006.8
20260507102555 40 0 0.0 0.0 0.00 0.47 0.01 91 1006.8
20260507102052 40 0 0.0 0.0 0.00 0.47 0.01 91 1006.9
20260507101556 40 0 0.0 0.0 0.00 0.47 0.01 91 1007.1
20260507101051 41 0 0.0 0.0 0.00 0.47 0.01 90 1007.1
20260507100551 41 0 0.0 2.0 0.00 0.47 0.01 90 1007.1
20260507100055 41 0 0.0 2.0 0.00 0.47 0.01 90 1007.2
20260507095549 41 0 0.0 0.0 0.00 0.47 0.01 90 1007.0
20260507095052 41 0 0.0 0.0 0.00 0.47 0.01 90 1007.1
20260507094555 41 0 0.0 0.0 0.00 0.47 0.01 90 1007.1
20260507094051 41 0 0.0 0.0 0.00 0.47 0.01 90 1007.0
20260507093551 42 0 0.0 0.0 0.00 0.47 0.01 90 1007.3
20260507093059 42 0 0.0 0.0 0.00 0.47 0.01 90 1007.4
20260507092551 42 0 0.0 0.0 0.00 0.47 0.01 91 1007.4
20260507092051 42 0 0.0 0.0 0.00 0.47 0.01 91 1007.1
20260507091600 42 0 0.0 0.0 0.00 0.47 0.01 91 1007.0
20260507091049 42 0 0.0 5.0 0.00 0.47 0.01 91 1007.1
20260507090550 42 0 0.0 5.0 0.00 0.47 0.01 91 1007.0
20260507090057 42 0 0.0 5.0 0.00 0.47 0.01 91 1007.0
20260507085552 42 0 0.0 0.0 0.00 0.47 0.01 92 1007.0
20260507085051 42 0 0.0 0.0 0.00 0.47 0.01 92 1007.3
20260507084554 42 0 0.0 0.0 0.00 0.47 0.01 92 1007.2
20260507084051 42 0 0.0 0.0 0.00 0.47 0.01 91 1006.9
20260507083552 42 0 0.0 0.0 0.00 0.47 0.01 91 1006.9
20260507083055 42 0 0.0 0.0 0.00 0.47 0.01 92 1006.8
20260507082555 42 0 0.0 0.0 0.00 0.47 0.01 91 1006.7
20260507082051 42 0 0.0 0.0 0.00 0.47 0.01 91 1006.8
20260507081557 43 0 0.0 0.0 0.00 0.47 0.01 91 1007.0
20260507081051 43 0 0.0 0.0 0.00 0.47 0.01 91 1006.8
20260507080554 43 0 0.0 0.0 0.00 0.47 0.01 90 1006.9
20260507080052 43 0 0.0 0.0 0.00 0.47 0.01 90 1006.8
20260507075552 43 0 0.0 0.0 0.00 0.47 0.01 90 1006.9
20260507075052 43 0 0.0 0.0 0.00 0.47 0.01 90 1007.0
20260507074553 43 0 0.0 0.0 0.00 0.47 0.01 90 1006.7
20260507074054 43 0 0.0 0.0 0.00 0.47 0.01 90 1006.5
20260507073551 43 0 0.0 0.0 0.00 0.47 0.01 90 1006.4
20260507073101 44 0 0.0 0.0 0.00 0.47 0.01 90 1006.1
20260507072551 44 0 0.0 0.0 0.00 0.47 0.01 90 1006.0
20260507072051 44 0 0.0 1.0 0.00 0.47 0.01 90 1006.1
20260507071556 44 0 0.0 4.0 0.01 0.47 0.01 91 1006.1
20260507071051 44 0 0.0 4.0 0.01 0.47 0.01 90 1006.1
20260507070552 44 0 0.0 4.0 0.01 0.47 0.01 91 1006.1
20260507065552 44 0 0.0 2.0 0.01 0.47 0.01 91 1006.3
20260507065052 44 0 0.0 2.0 0.01 0.47 0.01 91 1006.4
20260507064555 44 0 0.0 2.0 0.01 0.47 0.01 91 1006.4
20260507064052 44 0 0.0 5.0 0.01 0.47 0.01 91 1006.0
20260507063552 44 0 0.0 5.0 0.01 0.47 0.01 91 1006.3
20260507063056 44 0 0.0 10.0 0.01 0.47 0.01 91 1006.5
20260507062552 44 0 0.0 10.0 0.01 0.47 0.01 92 1006.2
20260507062052 44 0 0.0 5.0 0.01 0.47 0.01 92 1006.0
20260507061555 44 0 0.0 3.0 0.00 0.46 0.00 92 1006.1
20260507061052 44 0 0.0 3.0 0.00 0.46 0.00 92 1006.2
20260507060550 44 0 0.0 1.0 0.00 0.46 0.00 93 1006.3
20260507060058 44 0 0.0 0.0 0.00 0.46 0.00 93 1006.4
20260507055552 44 0 0.0 0.0 0.00 0.46 0.00 93 1006.6
20260507055052 44 0 0.0 0.0 0.00 0.46 0.00 93 1006.5
20260507054601 44 0 0.0 0.0 0.00 0.46 0.00 93 1006.4
20260507054050 44 0 0.0 0.0 0.00 0.46 0.00 93 1006.3
20260507053551 44 0 0.0 0.0 0.00 0.46 0.00 93 1006.3
20260507053058 44 0 0.0 0.0 0.00 0.46 0.00 93 1006.2
20260507052550 44 0 0.0 1.0 0.00 0.46 0.00 93 1006.5
20260507052050 44 0 0.0 1.0 0.00 0.46 0.00 93 1006.5
20260507051601 44 0 0.0 1.0 0.00 0.46 0.00 93 1006.5
20260507051050 44 0 0.0 0.0 0.00 0.46 0.00 93 1006.4
20260507050551 44 0 0.0 3.0 0.00 0.46 0.00 93 1006.6
20260507050057 45 0 0.0 3.0 0.00 0.46 0.00 93 1006.1
20260507045554 45 0 0.0 0.0 0.00 0.46 0.00 93 1006.3
20260507045051 45 0 0.0 0.0 0.00 0.46 0.00 93 1006.2
20260507044600 45 0 0.0 0.0 0.00 0.46 0.00 93 1006.1
20260507044051 45 0 0.0 0.0 0.00 0.46 0.00 93 1006.1
20260507043551 45 0 0.0 0.0 0.00 0.46 0.00 93 1006.2
20260507043056 45 0 0.0 0.0 0.00 0.46 0.00 93 1006.0
20260507042552 45 0 0.0 0.0 0.00 0.46 0.00 93 1005.8
20260507042050 45 0 0.0 4.0 0.00 0.46 0.00 93 1005.8
20260507041551 45 0 0.0 4.0 0.00 0.46 0.00 93 1005.9
20260507041050 45 0 0.0 4.0 0.00 0.46 0.00 93 1005.7
20260507040550 45 0 0.0 4.0 0.01 0.46 0.00 93 1005.8
20260507040058 45 0 0.0 5.0 0.01 0.46 0.00 93 1006.0
20260507035550 45 0 0.0 5.0 0.01 0.46 0.46 93 1006.0
20260507035051 45 0 0.0 5.0 0.01 0.46 0.46 93 1006.2
20260507034608 45 0 0.0 6.0 0.01 0.46 0.46 93 1006.2
20260507034050 45 0 0.0 6.0 0.01 0.46 0.46 93 1006.4
20260507033554 45 0 1.0 6.0 0.01 0.46 0.46 93 1006.4
20260507033054 45 0 0.0 4.0 0.01 0.46 0.46 93 1006.2
20260507032555 45 309 0.0 1.0 0.02 0.46 0.46 93 1006.2
20260507032051 45 0 0.0 1.0 0.02 0.46 0.46 93 1006.1
20260507031551 45 0 0.0 1.0 0.02 0.46 0.46 93 1005.9
20260507031051 45 0 0.0 0.0 0.02 0.46 0.46 93 1005.8
20260507030553 46 0 0.0 0.0 0.01 0.45 0.45 93 1006.1
20260507025551 46 0 0.0 6.0 0.01 0.45 0.45 93 1006.1
20260507025052 46 0 0.0 6.0 0.01 0.45 0.45 93 1006.2
20260507024559 46 44 0.0 6.0 0.01 0.45 0.45 93 1006.1
20260507024050 46 0 0.0 4.0 0.01 0.45 0.45 93 1006.2
20260507023551 46 0 0.0 5.0 0.02 0.45 0.45 93 1006.2
20260507023053 46 304 0.0 5.0 0.02 0.45 0.45 93 1006.1
20260507022552 46 0 0.0 1.0 0.02 0.44 0.44 92 1006.0
20260507022052 46 0 0.0 1.0 0.02 0.44 0.44 92 1006.1
20260507021557 46 0 0.0 4.0 0.02 0.44 0.44 93 1006.2
20260507021051 46 0 0.0 4.0 0.02 0.44 0.44 93 1006.0
20260507020552 47 332 0.0 4.0 0.03 0.44 0.44 92 1006.0
20260507020104 47 0 0.0 9.0 0.03 0.44 0.44 92 1005.9
20260507015551 47 0 0.0 9.0 0.03 0.44 0.44 93 1006.0
20260507015050 47 0 0.0 6.0 0.03 0.44 0.44 93 1005.9
20260507014553 48 0 0.0 2.0 0.03 0.44 0.44 93 1006.1
20260507014051 48 0 0.0 4.0 0.03 0.44 0.44 93 1005.8
20260507013549 48 0 0.0 4.0 0.02 0.43 0.43 93 1006.0
20260507013101 48 0 0.0 4.0 0.02 0.43 0.43 93 1005.8
20260507012552 48 0 0.0 2.0 0.01 0.42 0.42 93 1005.7
20260507012052 48 0 0.0 7.0 0.01 0.42 0.42 93 1005.3
20260507011555 49 0 0.0 7.0 0.01 0.42 0.42 92 1005.4
20260507011052 49 0 0.0 2.0 0.00 0.41 0.41 93 1005.4
20260507010552 49 311 0.0 2.0 0.00 0.41 0.41 93 1005.2
20260507010054 49 0 0.0 3.0 0.00 0.41 0.41 93 1005.3
20260507005552 50 0 0.0 3.0 0.00 0.41 0.41 93 1005.1
20260507005051 50 0 0.0 3.0 0.01 0.41 0.41 93 1005.2
20260507004559 50 0 0.0 2.0 0.01 0.41 0.41 93 1005.1
20260507004052 51 0 0.0 6.0 0.01 0.41 0.41 93 1005.1
20260507003555 51 0 0.0 6.0 0.01 0.41 0.41 93 1004.9
20260507003056 51 0 0.0 2.0 0.01 0.41 0.41 93 1004.7
20260507002548 51 0 0.0 5.0 0.01 0.41 0.41 92 1004.8
20260507002051 51 0 0.0 5.0 0.01 0.41 0.41 92 1004.8
20260507001554 52 0 0.0 5.0 0.01 0.41 0.41 92 1004.6
20260507001050 52 0 0.0 4.0 0.01 0.41 0.41 92 1004.4
20260507000552 52 0 0.0 4.0 0.01 0.41 0.41 92 1004.6
20260507000055 52 0 0.0 0.0 0.01 0.41 0.41 92 1004.4
20260506235550 53 0 0.0 0.0 0.02 0.41 0.41 92 1004.4
20260506235052 53 0 0.0 0.0 0.01 0.40 0.40 91 1004.3
20260506234555 53 0 0.0 0.0 0.01 0.40 0.40 91 1004.3
20260506234051 54 0 0.0 1.0 0.01 0.40 0.40 91 1004.0
20260506233552 54 0 0.0 1.0 0.01 0.40 0.40 92 1004.2
20260506233054 54 0 0.0 1.0 0.01 0.40 0.40 91 1003.9
20260506232554 55 0 0.0 4.0 0.01 0.40 0.40 91 1003.8
20260506232048 55 0 0.0 6.0 0.01 0.40 0.40 92 1003.8
20260506231556 56 0 0.0 6.0 0.01 0.40 0.40 92 1003.9
20260506231048 57 304 0.0 8.0 0.01 0.40 0.40 92 1003.8
20260506230552 57 0 0.0 8.0 0.02 0.40 0.40 92 1003.8
20260506230056 58 0 0.0 8.0 0.01 0.39 0.39 93 1003.7
20260506225551 59 0 0.0 5.0 0.01 0.40 0.39 94 1003.6
20260506225051 59 0 0.0 0.0 0.02 0.40 0.39 95 1003.5
20260506224606 59 0 0.0 0.0 0.03 0.40 0.39 95 1003.3
20260506224047 60 0 0.0 0.0 0.03 0.40 0.39 94 1003.3
20260506223550 60 0 0.0 0.0 0.04 0.40 0.39 94 1003.4
20260506223052 60 0 0.0 0.0 0.05 0.40 0.39 94 1003.4
20260506222550 60 0 0.0 0.0 0.06 0.40 0.39 94 1003.3
20260506222051 60 0 0.0 0.0 0.07 0.40 0.39 94 1003.4
20260506221554 60 0 0.0 0.0 0.07 0.40 0.39 94 1003.3
20260506221048 60 0 0.0 1.0 0.08 0.40 0.39 94 1003.4
20260506220548 60 0 0.0 5.0 0.07 0.39 0.38 94 1003.4
20260506220054 60 0 0.0 5.0 0.07 0.39 0.38 94 1003.3
20260506215548 60 0 0.0 2.0 0.08 0.42 0.38 94 1003.5
20260506215048 60 0 0.0 2.0 0.08 0.41 0.37 94 1003.4
20260506214609 60 0 0.0 1.0 0.07 0.40 0.36 94 1003.4
20260506214051 60 0 0.0 1.0 0.09 0.40 0.36 94 1003.5
20260506213548 59 0 0.0 2.0 0.09 0.39 0.35 94 1003.5
20260506213053 59 0 0.0 2.0 0.09 0.38 0.34 94 1003.6
20260506212548 60 0 0.0 2.0 0.09 0.37 0.33 94 1003.7
20260506212054 60 0 0.0 2.0 0.09 0.36 0.32 94 1003.7
20260506211554 60 0 0.0 2.0 0.09 0.36 0.32 94 1003.7
20260506211052 60 27 0.0 1.0 0.09 0.35 0.31 94 1003.6
20260506210551 60 0 0.0 1.0 0.09 0.35 0.31 94 1003.7
20260506210055 60 0 0.0 0.0 0.09 0.35 0.31 94 1003.8
20260506205551 59 0 0.0 0.0 0.08 0.34 0.30 94 1003.7
20260506205048 59 0 0.0 0.0 0.08 0.33 0.29 94 1003.9
20260506204604 59 0 0.0 0.0 0.08 0.33 0.29 93 1003.9
20260506204048 60 0 0.0 0.0 0.07 0.31 0.27 93 1004.0
20260506203548 60 0 0.0 1.0 0.06 0.30 0.26 93 1004.0
20260506203055 60 0 0.0 1.0 0.06 0.29 0.25 93 1004.2
20260506202548 60 0 0.0 3.0 0.05 0.28 0.24 93 1004.0
20260506202051 60 0 0.0 5.0 0.05 0.27 0.23 93 1004.0
20260506201555 60 0 0.0 5.0 0.05 0.27 0.23 93 1004.2
20260506201052 60 0 0.0 5.0 0.05 0.26 0.22 93 1004.3
20260506200550 60 0 0.0 2.0 0.05 0.26 0.22 93 1004.3
20260506200055 60 0 0.0 0.0 0.06 0.26 0.22 93 1004.3
20260506195551 60 0 0.0 0.0 0.06 0.26 0.22 94 1004.2
20260506195054 60 0 0.0 0.0 0.05 0.25 0.21 94 1004.4
20260506194606 60 0 0.0 0.0 0.06 0.25 0.21 94 1004.4
20260506194050 60 0 0.0 0.0 0.05 0.24 0.20 94 1004.5
20260506193551 60 0 0.0 6.0 0.06 0.24 0.20 94 1004.6
20260506193057 60 0 0.0 6.0 0.05 0.23 0.19 93 1004.7
20260506192551 60 0 0.0 0.0 0.06 0.23 0.19 93 1004.7
20260506192048 60 0 0.0 0.0 0.05 0.22 0.18 93 1004.6
20260506191552 60 0 0.0 0.0 0.04 0.21 0.17 93 1004.8
20260506191047 60 0 0.0 1.0 0.05 0.21 0.17 93 1004.8
20260506190550 60 0 0.0 1.0 0.05 0.21 0.17 93 1004.9
20260506190053 60 0 0.0 1.0 0.05 0.20 0.16 93 1004.7
20260506185547 60 0 0.0 3.0 0.06 0.20 0.16 93 1004.7
20260506185050 60 0 0.0 3.0 0.07 0.20 0.16 93 1004.8
20260506184557 60 0 0.0 3.0 0.06 0.19 0.15 94 1004.9
20260506184051 60 0 0.0 1.0 0.07 0.19 0.15 94 1005.0
20260506183552 60 0 0.0 5.0 0.07 0.18 0.14 93 1005.3
20260506183100 60 0 0.0 5.0 0.08 0.18 0.14 93 1005.1
20260506182551 60 96 0.0 2.0 0.08 0.17 0.13 93 1005.1
20260506182051 60 0 0.0 2.0 0.08 0.17 0.13 93 1005.2
20260506181552 60 0 0.0 4.0 0.09 0.17 0.13 93 1005.5
20260506181048 60 0 0.0 4.0 0.08 0.16 0.12 93 1005.4
20260506180548 60 0 0.0 4.0 0.09 0.16 0.12 92 1005.7
20260506180052 60 0 0.0 1.0 0.09 0.15 0.11 92 1005.6
20260506175548 60 0 0.0 1.0 0.08 0.14 0.10 92 1005.7
20260506175054 60 0 0.0 0.0 0.08 0.13 0.09 91 1005.8
20260506174552 60 0 0.0 0.0 0.08 0.13 0.09 91 1005.8
20260506174052 61 0 0.0 0.0 0.07 0.12 0.08 90 1005.8
20260506173551 61 0 0.0 0.0 0.07 0.11 0.07 90 1005.8
20260506173054 61 0 0.0 0.0 0.06 0.10 0.06 89 1005.9
20260506172550 61 0 0.0 0.0 0.05 0.09 0.05 88 1006.0
20260506172051 61 0 0.0 0.0 0.05 0.09 0.05 88 1006.1
20260506171557 61 0 0.0 0.0 0.04 0.08 0.04 87 1006.0
20260506171051 62 0 0.0 0.0 0.04 0.08 0.04 87 1006.2
20260506170552 62 0 0.0 0.0 0.03 0.07 0.03 86 1006.2
20260506170059 62 0 0.0 0.0 0.02 0.06 0.02 86 1006.2
20260506165548 62 0 0.0 0.0 0.02 0.06 0.02 86 1006.1
20260506165241 62 0 0.0 0.0 0.01 0.05 0.01 86 1006.2
20260506164558 62 0 0.0 0.0 0.01 0.05 0.01 85 1006.3
20260506164053 62 0 0.0 0.0 0.01 0.05 0.01 84 1006.1
20260506163553 62 0 0.0 0.0 0.00 0.04 0.00 83 1006.3
20260506163105 62 0 0.0 0.0 0.00 0.04 0.00 82 1006.3
20260506162551 62 0 0.0 0.0 0.00 0.04 0.00 82 1006.3
20260506162051 62 0 0.0 0.0 0.00 0.04 0.00 82 1006.2
20260506161606 62 0 0.0 0.0 0.00 0.04 0.00 83 1006.6
20260506161055 62 0 0.0 0.0 0.00 0.04 0.00 84 1006.4
20260506160551 62 0 0.0 0.0 0.00 0.04 0.00 84 1006.6
20260506160058 62 0 0.0 0.0 0.00 0.04 0.00 83 1006.9
20260506155647 0 0.0 0.0 0.00 0.04 0.00 1007.2
20260506154052 62 0 0.0 0.0 0.00 0.04 0.00 81 1007.5
20260506153552 62 0 0.0 0.0 0.00 0.04 0.00 80 1007.7
20260506153055 62 0 0.0 0.0 0.00 0.04 0.00 80 1007.7
20260506152552 61 0 0.0 0.0 0.00 0.04 0.00 79 1007.6
20260506152052 61 0 0.0 0.0 0.00 0.04 0.00 79 1007.6
20260506151554 61 0 0.0 0.0 0.00 0.04 0.00 79 1007.4
20260506151051 61 0 0.0 0.0 0.00 0.04 0.00 79 1007.5
20260506150551 61 0 0.0 0.0 0.00 0.04 0.00 80 1007.3
20260506150054 61 0 0.0 0.0 0.00 0.04 0.00 80 1007.4
20260506145554 61 0 0.0 0.0 0.00 0.04 0.00 80 1007.2
20260506145053 61 0 0.0 0.0 0.00 0.04 0.00 80 1007.5
20260506144601 61 0 0.0 1.0 0.00 0.04 0.00 80 1007.6
20260506144052 61 0 0.0 1.0 0.00 0.04 0.00 80 1007.7
20260506143551 61 0 0.0 3.0 0.00 0.04 0.00 80 1007.5
20260506143053 61 0 0.0 3.0 0.00 0.04 0.00 79 1007.5
20260506142552 61 0 0.0 3.0 0.00 0.04 0.00 79 1007.5
20260506142051 61 0 0.0 3.0 0.00 0.04 0.00 80 1007.5
20260506141603 61 0 0.0 0.0 0.00 0.04 0.00 80 1007.6
20260506141054 61 0 0.0 0.0 0.00 0.04 0.00 80 1007.6
20260506140552 61 0 0.0 0.0 0.00 0.04 0.00 79 1007.6
20260506140109 61 0 0.0 0.0 0.00 0.04 0.00 80 1007.6
20260506135552 61 0 0.0 0.0 0.00 0.04 0.00 80 1007.3
20260506135051 60 0 0.0 2.0 0.00 0.04 0.00 80 1007.5
20260506134558 60 0 0.0 2.0 0.00 0.04 0.00 80 1007.7
20260506134053 61 0 0.0 2.0 0.00 0.04 0.00 80 1007.7
20260506133551 61 0 0.0 0.0 0.00 0.04 0.00 81 1007.7
20260506133102 60 0 0.0 0.0 0.00 0.04 0.00 81 1007.9
20260506132551 60 0 0.0 0.0 0.00 0.04 0.00 81 1007.9
20260506132051 60 0 0.0 0.0 0.00 0.04 0.00 81 1008.0
20260506131554 60 0 0.0 0.0 0.00 0.04 0.00 82 1007.8
20260506131054 60 0 0.0 1.0 0.00 0.04 0.00 81 1008.0
20260506130551 60 0 0.0 1.0 0.00 0.04 0.00 81 1008.0
20260506130054 60 0 0.0 1.0 0.00 0.04 0.00 82 1007.8
20260506125552 60 0 0.0 0.0 0.00 0.04 0.00 82 1007.7
20260506125051 60 0 0.0 0.0 0.00 0.04 0.00 82 1007.8
20260506124555 59 0 0.0 0.0 0.00 0.04 0.00 82 1007.9
20260506124051 59 0 0.0 0.0 0.00 0.04 0.00 83 1007.9
20260506123554 59 0 0.0 0.0 0.00 0.04 0.00 83 1007.6
20260506123054 59 0 0.0 0.0 0.00 0.04 0.00 83 1007.7
20260506122551 59 0 0.0 0.0 0.00 0.04 0.00 83 1007.8
20260506122052 59 0 0.0 0.0 0.00 0.04 0.00 84 1007.9
20260506121553 59 0 0.0 0.0 0.00 0.04 0.00 85 1007.9
20260506121051 58 0 0.0 1.0 0.00 0.04 0.00 85 1008.1